Flag for United Kingdom Weather past 2 weeks in Darlington, England, United Kingdom

Now
48 °F

Passing clouds.


Feels Like: 43 °F
Forecast: 43 / 56 °F
Wind: 12 mph from West

Location: Tees-Side

Current Time: May 30, 2015 at 1:43:33 AM

Latest Report: May 29, 2015 at 9:50 PM


Visibility: N/A

Pressure: 29.68 "Hg

Humidity: 71%

Dew point: 39 °F

Location of DarlingtonLocation

Historic Weather in Darlington — Graph

°F

Darlington temperature yesterday

Maximum temperature yesterday: 55 °F (at 2:50 PM)
Minimum temperature yesterday: 45 °F (at 5:50 AM)
Average temperature yesterday: 49 °F

Past Weeks' High & Low Weather Summary

 TemperatureHumidityPressure
High66 °F (May 22, 11:20 AM)93% (May 18, 7:20 AM)30.30 "Hg (May 18, 7:20 AM)
Low41 °F (May 21, 5:50 AM)30% (May 23, 7:50 PM)29.42 "Hg (May 18, 8:50 PM)
Average54 °F62%29.98 "Hg
* Reported May 14 9:20 PM — May 29 9:50 PM, Darlington, Weather by CustomWeather, © 2015

Note: Actual official high and low records may vary slightly from our data, if they occured in-between our weather recording intervals... More about our weather records

Advertising

Darlington weather history for previous 24 hours

 ConditionsComfort  
Time TempWeatherWind HumidityBarometerVisibility
9:50 PM
Fri, May 29
48 °FPassing clouds.12 mph71%29.68 "HgN/A
9:20 PM48 °FPassing clouds.10 mph66%29.68 "HgN/A
8:50 PM50 °FPassing clouds.13 mph58%29.68 "HgN/A
8:20 PM50 °FScattered showers. Passing clouds.17 mph62%29.65 "HgN/A
7:50 PM52 °FScattered clouds.12 mph58%29.65 "HgN/A
7:20 PM50 °FScattered clouds.7 mph62%29.65 "HgN/A
6:50 PM52 °FScattered clouds.12 mph58%29.65 "HgN/A
6:20 PM54 °FScattered clouds.15 mph51%29.62 "HgN/A
5:50 PM54 °FScattered clouds.12 mph58%29.62 "HgN/A
5:20 PM54 °FScattered clouds.9 mph54%29.62 "HgN/A
4:50 PM54 °FScattered showers. Scattered clouds.20 mph58%29.62 "HgN/A
4:20 PM55 °FScattered showers. Scattered clouds.20 mph51%29.59 "HgN/A
3:50 PM54 °FSprinkles. Scattered clouds.14 mph54%29.59 "HgN/A
3:20 PM54 °FScattered clouds.18 mph54%29.59 "HgN/A
2:50 PM55 °FPartly sunny.6 mph59%29.59 "HgN/A
2:20 PM52 °FScattered clouds.2 mph77%29.59 "HgN/A
1:20 PM46 °FScattered showers. Partly sunny.2 mph82%29.59 "HgN/A
12:50 PM50 °FStrong thunderstorms. Broken clouds.3 mph71%29.59 "Hg2 mi
12:20 PM50 °FPartly sunny.3 mph71%29.59 "HgN/A
11:50 AM48 °FScattered clouds.6 mph76%29.62 "HgN/A
11:20 AM46 °FPartly sunny.6 mph82%29.62 "HgN/A
10:50 AM46 °FLight rain. Partly sunny.7 mph82%29.62 "HgN/A
10:20 AM46 °FLight rain. Partly sunny.8 mph82%29.62 "HgN/A
9:50 AM45 °FLight rain. Partly sunny.7 mph87%29.62 "HgN/A
9:20 AM46 °FLight rain. Partly sunny.7 mph82%29.62 "HgN/A
8:50 AM46 °FLight rain. Partly sunny.7 mph82%29.65 "HgN/A
8:20 AM46 °FLight rain. Partly sunny.8 mph82%29.65 "HgN/A
7:50 AM45 °FScattered clouds.8 mph87%29.65 "HgN/A
7:20 AM45 °FScattered clouds.6 mph87%29.65 "HgN/A
6:50 AM45 °FPassing clouds.6 mph87%29.65 "HgN/A
6:20 AM45 °FLight rain. Passing clouds.7 mph87%29.68 "HgN/A
5:50 AM45 °FLight rain. Passing clouds.8 mph87%29.68 "Hg5 mi
Weather by CustomWeather, © 2015

See weather overviewHow to use our weather pages